Location: Emblem
(62.4273°N, 6.4710°E)
Time: 01:01:58
(UTC+02:00)

A-11 Canister half - Pass Details

Date: 08 December 2023
Orbit: 1515 x 1685 km, 47.2° (Epoch: 14 October)

Event Time Altitude Azimuth Distance (km) Brightness Sun altitude
Exits shadow 05:54:18 20° 228° (SW) 3,157 10.2 -23.6°
Maximum altitude 05:56:03 21° 215° (SW) 3,103 10.3 -23.4°
Drops below altitude 10° 06:02:56 10° 171° (S) 3,936 11.3 -22.6°
Sets 06:07:06 0° 157° (SSE) 4,931 12.1 -22.1°
